This is the latest recevied weather packets stored in our database for station/object KB0BDN-13. If no packets are shown the sender has not sent any weather packets the latest 10 day(s).
| Time | Temp. | Humidity | Pressure | Rain* | Wind** | Luminosity | Snow |
|---|---|---|---|---|---|---|---|
| 1777829527 | 12.78° C | 37% | - | 0 mm | - | - | - |
| 1777828627 | 12.22° C | 36% | - | 0 mm | - | - | - |
| 1777827727 | 12.22° C | 39% | - | 0 mm | - | - | - |
| 1777826827 | 12.22° C | 41% | - | 0 mm | - | - | - |
| 1777825927 | 11.67° C | 40% | - | 0 mm | - | - | - |
| 1777825027 | 11.67° C | 40% | - | 0 mm | - | - | - |
| 1777824127 | 11.67° C | 40% | - | 0 mm | - | - | - |
| 1777823227 | 11.67° C | 41% | - | 0 mm | - | - | - |
| 1777822327 | 11.67° C | 49% | - | 0 mm | - | - | - |
| 1777821427 | 11.67° C | 54% | - | 0 mm | - | - | - |
| 1777820527 | 11.11° C | 57% | - | 0 mm | - | - | - |
| 1777819627 | 10.56° C | 67% | - | 0 mm | - | - | - |
| 1777818727 | 10.56° C | 67% | - | 0 mm | - | - | - |
| 1777817827 | 10.56° C | 69% | - | 0 mm | - | - | - |
| 1777816927 | 10° C | 74% | - | 0 mm | - | - | - |
| 1777816027 | 10° C | 74% | - | 0 mm | - | - | - |
| 1777815127 | 9.44° C | 78% | - | 0 mm | - | - | - |
| 1777814227 | 8.89° C | 80% | - | 0 mm | - | - | - |
| 1777813327 | 8.33° C | 82% | - | 0 mm | - | - | - |
| 1777812427 | 7.78° C | 85% | - | 0 mm | - | - | - |
| 1777811527 | 6.11° C | 92% | - | 0 mm | - | - | - |
| 1777810627 | 5° C | 96% | - | 0 mm | - | - | - |
| 1777809727 | 4.44° C | 96% | - | 0 mm | - | - | - |
| 1777808827 | 3.33° C | 95% | - | 0 mm | - | - | - |
| 1777807927 | 1.67° C | 95% | - | 0 mm | - | - | - |
* Rain latest hour (hover to see other rain measurements)
** Current wind speed in m/s (hover to see current wind gust speed)